This is the latest recevied weather packets stored in our database for station/object KJ4AJP. If no packets are shown the sender has not sent any weather packets the latest 10 day(s).
| Time | Temp. | Humidity | Pressure | Rain* | Wind** | Luminosity | Snow |
|---|---|---|---|---|---|---|---|
| 1777693005 | 10° C | 59% | 1017.8 hPa | 0 mm | - | 0 W/m² | - |
| 1777692703 | 10.56° C | 59% | 1017.8 hPa | 0 mm | - | 0 W/m² | - |
| 1777692399 | 10.56° C | 58% | 1017.9 hPa | 0 mm | - | 0 W/m² | - |
| 1777692095 | 10.56° C | 58% | 1017.9 hPa | 0 mm | - | 0 W/m² | - |
| 1777691793 | 10.56° C | 57% | 1017.9 hPa | 0 mm | - | 0 W/m² | - |
| 1777691491 | 11.11° C | 58% | 1018 hPa | 0 mm | - | 0 W/m² | - |
| 1777691189 | 11.11° C | 56% | 1018 hPa | 0 mm | - | 0 W/m² | - |
| 1777690887 | 11.67° C | 55% | 1018 hPa | 0 mm | - | 0 W/m² | - |
| 1777690584 | 11.67° C | 54% | 1018.1 hPa | 0 mm | - | 0 W/m² | - |
| 1777690282 | 11.67° C | 53% | 1018.1 hPa | 0 mm | - | 0 W/m² | - |
| 1777689979 | 11.67° C | 53% | 1018.2 hPa | 0 mm | - | 0 W/m² | - |
| 1777689677 | 12.22° C | 53% | 1018.1 hPa | 0 mm | - | 0 W/m² | - |
| 1777689375 | 12.22° C | 51% | 1018.2 hPa | 0 mm | - | 0 W/m² | - |
| 1777689072 | 12.22° C | 52% | 1018.1 hPa | 0 mm | - | 0 W/m² | - |
| 1777688768 | 12.22° C | 51% | 1018.2 hPa | 0 mm | - | 0 W/m² | - |
| 1777688466 | 12.78° C | 52% | 1018 hPa | 0 mm | - | 0 W/m² | - |
| 1777688163 | 12.22° C | 51% | 1017.9 hPa | 0 mm | - | 0 W/m² | - |
| 1777687860 | 12.22° C | 50% | 1017.9 hPa | 0 mm | - | 0 W/m² | - |
| 1777687557 | 12.22° C | 50% | 1018 hPa | 0 mm | - | 0 W/m² | - |
| 1777687254 | 12.22° C | 53% | 1018.1 hPa | 0 mm | - | 0 W/m² | - |
| 1777686952 | 12.22° C | 52% | 1017.8 hPa | 0 mm | - | 0 W/m² | - |
| 1777686648 | 12.78° C | 52% | 1017.8 hPa | 0 mm | - | 0 W/m² | - |
| 1777686345 | 12.78° C | 51% | 1017.4 hPa | 0 mm | - | 0 W/m² | - |
| 1777686043 | 12.78° C | 51% | 1017.5 hPa | 0 mm | - | 0 W/m² | - |
| 1777685738 | 12.78° C | 51% | 1017.4 hPa | 0 mm | - | 0 W/m² | - |
* Rain latest hour (hover to see other rain measurements)
** Current wind speed in m/s (hover to see current wind gust speed)